When you browse on this site, cookies collect data to enhance your experience and personalize the content and advertising you see.
Visit our Privacy Policy to learn more. By continuing to use the site, you agree to this use of cookies and data.
  • In Romania
  • List of Countries
  • For 7 days
  • Water Temperature
  • Satellite Maps
  • Weather Map
  • Weather Widgets
  • user-avatar
    Login

    Hourly Weather Jambol

    Today, 24 June, Monday

    Time Temperature Precipitation Wind Pressure Humidity
    00:00 +24°C° 0.4 mm 2 mps 748 mmHg 67%
    01:00 +23°C° 0.4 mm 1 mps 749 mmHg 69%
    02:00 +23°C° 0 mm 1 mps 749 mmHg 71%
    03:00 +23°C° 0 mm 1 mps 748 mmHg 71%
    04:00 +22°C° 0 mm 1 mps 748 mmHg 72%
    05:00 +22°C° 0 mm 1 mps 748 mmHg 72%
    06:00 +24°C° 0 mm 1 mps 748 mmHg 67%
    07:00 +26°C° 0 mm 1 mps 749 mmHg 61%
    08:00 +28°C° 0 mm 1 mps 749 mmHg 56%
    09:00 +29°C° 0 mm 1 mps 749 mmHg 51%
    10:00 +31°C° 0 mm 2 mps 749 mmHg 47%
    11:00 +34°C° 0 mm 2 mps 750 mmHg 42%
    12:00 +34°C° 0 mm 3 mps 750 mmHg 41%
    13:00 +34°C° 0 mm 3 mps 749 mmHg 40%
    14:00 +35°C° 0 mm 3 mps 749 mmHg 39%
    15:00 +34°C° 0.1 mm 4 mps 749 mmHg 42%
    16:00 +33°C° 0.1 mm 4 mps 749 mmHg 44%
    17:00 +33°C° 0.1 mm 4 mps 749 mmHg 46%
    18:00 +30°C° 0 mm 4 mps 749 mmHg 53%
    19:00 +28°C° 0 mm 3 mps 749 mmHg 59%
    20:00 +26°C° 0 mm 2 mps 750 mmHg 65%
    21:00 +25°C° 0.2 mm 2 mps 750 mmHg 68%
    22:00 +24°C° 0.2 mm 1 mps 750 mmHg 71%
    23:00 +24°C° 0.2 mm 1 mps 750 mmHg 74%

    Tomorrow, 25 June, Tuesday

    Time Temperature Precipitation Wind Pressure Humidity
    00:00 +23°C° 0 mm 1 mps 751 mmHg 75%
    01:00 +23°C° 0 mm 1 mps 751 mmHg 76%
    02:00 +23°C° 0 mm 1 mps 751 mmHg 77%
    03:00 +22°C° 0.2 mm 1 mps 751 mmHg 80%
    04:00 +22°C° 0.2 mm 1 mps 751 mmHg 83%
    05:00 +22°C° 0.2 mm 1 mps 751 mmHg 85%
    06:00 +24°C° 0 mm 2 mps 751 mmHg 77%
    07:00 +26°C° 0 mm 3 mps 751 mmHg 69%
    08:00 +28°C° 0 mm 4 mps 752 mmHg 61%
    09:00 +29°C° 0 mm 5 mps 752 mmHg 58%
    10:00 +30°C° 0 mm 6 mps 752 mmHg 55%
    11:00 +32°C° 0 mm 6 mps 752 mmHg 52%
    12:00 +30°C° 0.4 mm 6 mps 752 mmHg 58%
    13:00 +30°C° 0.4 mm 6 mps 751 mmHg 59%
    14:00 +30°C° 0.4 mm 6 mps 751 mmHg 60%
    15:00 +29°C° 1.1 mm 6 mps 751 mmHg 64%
    16:00 +29°C° 1.1 mm 6 mps 751 mmHg 67%
    17:00 +28°C° 1.1 mm 6 mps 751 mmHg 70%
    18:00 +27°C° 0.4 mm 5 mps 751 mmHg 75%
    19:00 +26°C° 0.4 mm 4 mps 751 mmHg 79%
    20:00 +24°C° 0.4 mm 3 mps 752 mmHg 83%
    21:00 +24°C° 0.2 mm 3 mps 752 mmHg 85%
    22:00 +24°C° 0.2 mm 3 mps 752 mmHg 86%
    23:00 +22°C° 0.2 mm 3 mps 752 mmHg 87%

    Day after tomorrow, 26 June, Wednesday

    Time Temperature Precipitation Wind Pressure Humidity
    00:00 +22°C° 0 mm 3 mps 752 mmHg 88%
    01:00 +22°C° 0 mm 3 mps 752 mmHg 88%
    02:00 +21°C° 0 mm 3 mps 752 mmHg 89%
    03:00 +21°C° 0 mm 3 mps 752 mmHg 90%
    04:00 +21°C° 0 mm 4 mps 752 mmHg 90%
    05:00 +21°C° 0 mm 4 mps 752 mmHg 91%
    06:00 +22°C° 0.1 mm 4 mps 752 mmHg 87%
    07:00 +25°C° 0.1 mm 5 mps 752 mmHg 83%
    08:00 +26°C° 0.1 mm 6 mps 752 mmHg 79%
    09:00 +27°C° 0.4 mm 6 mps 752 mmHg 77%
    10:00 +27°C° 0.4 mm 7 mps 753 mmHg 74%
    11:00 +28°C° 0.4 mm 7 mps 753 mmHg 71%
    12:00 +28°C° 0.7 mm 7 mps 753 mmHg 70%
    13:00 +29°C° 0.7 mm 7 mps 753 mmHg 68%
    14:00 +29°C° 0.7 mm 7 mps 752 mmHg 67%
    15:00 +29°C° 0.1 mm 6 mps 752 mmHg 66%
    16:00 +29°C° 0.1 mm 6 mps 752 mmHg 64%
    17:00 +30°C° 0.1 mm 6 mps 752 mmHg 63%
    18:00 +28°C° 0 mm 5 mps 752 mmHg 69%
    19:00 +27°C° 0 mm 4 mps 752 mmHg 75%
    20:00 +25°C° 0 mm 3 mps 752 mmHg 81%
    21:00 +24°C° 0 mm 3 mps 752 mmHg 85%
    22:00 +24°C° 0 mm 2 mps 752 mmHg 88%
    23:00 +23°C° 0 mm 2 mps 753 mmHg 92%

    27 June, Thursday

    Time Temperature Precipitation Wind Pressure Humidity
    00:00 +23°C° 0 mm 2 mps 752 mmHg 91%
    01:00 +21°C° 0 mm 2 mps 752 mmHg 91%
    02:00 +21°C° 0 mm 2 mps 752 mmHg 90%
    03:00 +21°C° 0 mm 2 mps 752 mmHg 89%
    04:00 +21°C° 0 mm 2 mps 752 mmHg 88%
    05:00 +21°C° 0 mm 2 mps 752 mmHg 87%
    06:00 +22°C° 0 mm 3 mps 752 mmHg 80%
    07:00 +25°C° 0 mm 4 mps 752 mmHg 74%
    08:00 +27°C° 0 mm 4 mps 752 mmHg 67%
    09:00 +28°C° 0 mm 4 mps 752 mmHg 63%
    10:00 +30°C° 0 mm 4 mps 752 mmHg 58%
    11:00 +32°C° 0 mm 4 mps 752 mmHg 54%
    12:00 +33°C° 0 mm 4 mps 751 mmHg 53%
    13:00 +33°C° 0 mm 4 mps 751 mmHg 52%
    14:00 +34°C° 0 mm 4 mps 750 mmHg 51%
    15:00 +33°C° 0 mm 4 mps 750 mmHg 53%
    16:00 +33°C° 0 mm 4 mps 749 mmHg 55%
    17:00 +31°C° 0 mm 3 mps 749 mmHg 57%
    18:00 +30°C° 0 mm 3 mps 749 mmHg 63%
    19:00 +28°C° 0 mm 2 mps 748 mmHg 70%
    20:00 +26°C° 0 mm 2 mps 748 mmHg 76%
    21:00 +25°C° 0 mm 1 mps 748 mmHg 78%
    22:00 +25°C° 0 mm 1 mps 748 mmHg 80%
    23:00 +22°C° 0 mm 0 mps 748 mmHg 83%

    28 June, Friday

    Time Temperature Precipitation Wind Pressure Humidity
    00:00 +23°C° 0 mm 1 mps 748 mmHg 84%
    01:00 +23°C° 0 mm 1 mps 747 mmHg 85%
    02:00 +23°C° 0 mm 1 mps 747 mmHg 86%
    03:00 +22°C° 0 mm 1 mps 747 mmHg 86%
    04:00 +22°C° 0 mm 1 mps 747 mmHg 86%
    05:00 +22°C° 0 mm 1 mps 746 mmHg 87%
    06:00 +24°C° 0 mm 1 mps 746 mmHg 79%
    07:00 +26°C° 0 mm 2 mps 746 mmHg 72%
    08:00 +28°C° 0 mm 2 mps 746 mmHg 65%
    09:00 +29°C° 0 mm 2 mps 746 mmHg 59%
    10:00 +31°C° 0 mm 2 mps 746 mmHg 52%
    11:00 +34°C° 0 mm 2 mps 746 mmHg 46%
    12:00 +34°C° 0 mm 2 mps 746 mmHg 44%
    13:00 +34°C° 0 mm 2 mps 745 mmHg 43%
    14:00 +34°C° 0 mm 2 mps 745 mmHg 42%
    15:00 +34°C° 0.2 mm 3 mps 745 mmHg 46%
    16:00 +33°C° 0.2 mm 4 mps 745 mmHg 51%
    17:00 +32°C° 0.2 mm 4 mps 745 mmHg 55%
    18:00 +29°C° 0.1 mm 4 mps 745 mmHg 62%
    19:00 +28°C° 0.1 mm 3 mps 746 mmHg 70%
    20:00 +26°C° 0.1 mm 2 mps 746 mmHg 77%
    21:00 +25°C° 0.3 mm 2 mps 746 mmHg 81%
    22:00 +24°C° 0.3 mm 2 mps 747 mmHg 86%
    23:00 +23°C° 0.3 mm 2 mps 747 mmHg 90%

    29 June, Saturday

    Time Temperature Precipitation Wind Pressure Humidity
    00:00 +23°C° 0.1 mm 2 mps 747 mmHg 89%
    01:00 +23°C° 0.1 mm 2 mps 747 mmHg 88%
    02:00 +23°C° 0.1 mm 2 mps 747 mmHg 87%
    03:00 +23°C° 0 mm 2 mps 747 mmHg 86%
    04:00 +23°C° 0 mm 2 mps 748 mmHg 84%
    05:00 +23°C° 0 mm 2 mps 748 mmHg 83%
    06:00 +23°C° 0 mm 2 mps 748 mmHg 80%
    07:00 +23°C° 0 mm 2 mps 748 mmHg 78%
    08:00 +23°C° 0 mm 2 mps 749 mmHg 76%
    09:00 +25°C° 0 mm 2 mps 749 mmHg 66%
    10:00 +26°C° 0 mm 3 mps 749 mmHg 56%
    11:00 +28°C° 0 mm 3 mps 749 mmHg 46%
    12:00 +29°C° 0 mm 3 mps 749 mmHg 45%
    13:00 +29°C° 0 mm 3 mps 749 mmHg 44%
    14:00 +30°C° 0 mm 2 mps 748 mmHg 42%
    15:00 +30°C° 0 mm 2 mps 748 mmHg 44%
    16:00 +29°C° 0 mm 2 mps 748 mmHg 46%
    17:00 +29°C° 0 mm 2 mps 748 mmHg 48%
    18:00 +27°C° 0 mm 2 mps 748 mmHg 55%
    19:00 +26°C° 0 mm 2 mps 748 mmHg 61%
    20:00 +24°C° 0 mm 2 mps 748 mmHg 67%
    21:00 +23°C° 0 mm 2 mps 749 mmHg 69%
    22:00 +22°C° 0 mm 1 mps 749 mmHg 72%
    23:00 +21°C° 0 mm 1 mps 749 mmHg 74%
    Show more